Home > Weather > Whitehorse > Past weeks

Flag for Canada Weather for the Past 2 Weeks in Whitehorse, Yukon, Canada

Now
18 °F

Light snow. Passing clouds.


Feels Like: 11 °F
Forecast: 7 / 18 °F
Wind: 5 mph from Northwest

Location: Whitehorse

Current Time: Feb 9, 2016 at 6:19:35 AM

Latest Report: Feb 9, 2016 at 5:00 AM


Visibility: 15 mi

Pressure: 30.08 "Hg (27.69 "Hg at 640m altitude)

Humidity: 93%

Dew point: 16 °F

Location of WhitehorseLocation

Historic Weather in Whitehorse — Graph

°F

Whitehorse Temperature Yesterday

Maximum temperature yesterday: 21 °F (at 3:00 PM)
Minimum temperature yesterday: 16 °F (at 9:00 AM)
Average temperature yesterday: 19 °F

High & Low Weather Summary for the Past Weeks

 TemperatureHumidityPressure
High36 °F (Jan 26, 3:00 PM)93% (Jan 25, 6:00 PM)30.28 "Hg (Jan 25, 6:00 PM)
Low1 °F (Feb 7, 5:00 AM)69% (Jan 27, 7:00 AM)29.12 "Hg (Jan 28, 6:00 AM)
Average21 °F85%29.74 "Hg
* Reported Jan 25 5:00 AM — Feb 9 5:00 AM, Whitehorse, Weather by CustomWeather, © 2016

Note: Actual official high and low records may vary slightly from our data, if they occured in-between our weather recording intervals... More about our weather records

Advertising

Whitehorse Weather History for the Previous 24 Hours

 ConditionsComfort  
Time TempWeatherWind HumidityBarometerVisibility
5:00 AM
Tue, Feb 9
18 °FLight snow. Passing clouds.5 mph93%30.08 "Hg15 mi
4:00 AM19 °FLight snow. Mostly cloudy.5 mph93%30.04 "Hg5 mi
3:00 AM21 °FLight snow. Mostly cloudy.2 mph93%30.00 "Hg2 mi
2:00 AM21 °FLight snow. Mostly cloudy.2 mph93%29.96 "Hg2 mi
1:00 AM21 °FLight snow. Low clouds.2 mph93%29.94 "Hg4 mi
12:00 AM21 °FLight snow. Mostly cloudy.2 mph93%29.93 "Hg7 mi
11:00 PM
Mon, Feb 8
21 °FLight snow. Mostly cloudy.3 mph86%29.92 "Hg8 mi
10:00 PM21 °FLight snow. Mostly cloudy.5 mph93%29.91 "Hg10 mi
9:00 PM21 °FLight snow. Low clouds.3 mph86%29.94 "Hg6 mi
8:00 PM21 °FLight snow. Overcast.6 mph93%29.93 "Hg4 mi
7:00 PM21 °FLight snow. Ice fog.3 mph93%29.95 "Hg1 mi
6:00 PM21 °FLight snow. Ice fog.5 mph86%29.99 "Hg1 mi
5:00 PM21 °FLight snow. Ice fog.9 mph86%30.02 "Hg2 mi
4:00 PM21 °FLight snow. Mostly cloudy.15 mph86%30.06 "Hg4 mi
3:00 PM21 °FMostly cloudy.5 mph80%30.06 "Hg30 mi
2:00 PM19 °FOvercast.6 mph86%30.08 "Hg40 mi
1:00 PM18 °FMostly cloudy.No wind86%30.10 "Hg40 mi
12:00 PM18 °FPartly sunny.3 mph86%30.11 "Hg40 mi
11:00 AM16 °FPartly sunny.3 mph93%30.13 "Hg40 mi
10:00 AM18 °FPartly sunny.3 mph86%30.14 "Hg40 mi
9:00 AM16 °FOvercast.5 mph93%30.15 "Hg40 mi
8:00 AM18 °FMostly cloudy.8 mph93%30.14 "Hg40 mi
7:00 AM19 °FPassing clouds.13 mph86%30.16 "Hg15 mi
6:00 AM18 °FPassing clouds.10 mph93%30.14 "Hg15 mi
Weather by CustomWeather, © 2016

See weather overviewHow to use our weather pages